Regional Weather Roundup
Issued by NWS

Home | Current Version | Previous Version | Graphics & Text | Print | Product List | Glossary On
Versions: 1 2 3 4 5 6 7 8 9 10 11 12 13 14 15 16 17 18 19 20 21 22 23 24 25 26 27 28 29 30 31 32 33 34 35 36 37 38 39 40 41 42 43 44 45 46 47 48 49 50
000
ASUS43 KMKX 311700
RWRWI

WISCONSIN REGIONAL WEATHER ROUNDUP
NATIONAL WEATHER SERVICE MILWAUKEE/SULLIVAN WI
1200 PM CDT MON AUG 31 2015

NOTE: "FAIR" INDICATES FEW OR NO CLOUDS BELOW 12,000 FEET WITH NO
SIGNIFICANT WEATHER AND/OR OBSTRUCTIONS TO VISIBILITY.

WIZ001-002-006>008-014>016-023>028-311800-
NORTHWEST WISCONSIN

CITY           SKY/WX    TMP DP  RH WIND       PRES   REMARKS
SUPERIOR ARPT  SUNNY     76  67  72 SW12      29.88S
ASHLAND        SUNNY     78  67  68 S12G22    29.91F HX  80
HAYWARD        CLOUDY    72  64  76 SW13G23   29.97F
SIREN          MOSUNNY   77  67  70 SW9       29.94R
CUMBERLAND     CLOUDY    70  66  88 S8        29.98S
RICE LAKE      CLOUDY    70  66  85 S9        30.00S
CHETEK         CLOUDY   N/A N/A N/A S7        30.00S
LADYSMITH      CLOUDY    68  67  96 S7        30.03R
EAU CLAIRE     CLOUDY    73  67  81 S8        29.99S
MENOMONIE      CLOUDY    74  69  85 S8        29.99F
NEW RICHMOND   CLOUDY    74  69  84 S12       29.97S
OSCEOLA        CLOUDY    74  73  93 S10       29.97F
$$

WIZ003>005-009-010-017-018-311800-
NORTH CENTRAL WISCONSIN

CITY           SKY/WX    TMP DP  RH WIND       PRES   REMARKS
MANITOWISH WTR SUNNY     73  65  76 S10G16    30.00S
ARBOR VITAE    SUNNY     74  66  75 SW8       30.01S
WOODRUFF       SUNNY     74  66  75 SW8       30.01S
RHINELANDER    PTSUNNY   72  64  76 SW10      30.04S
EAGLE RIVER    SUNNY     74  62  65 SW8       30.01F
LAND O LAKES   SUNNY     76  61  59 SW8       30.01S
PHILLIPS       CLOUDY    68  65  88 SW10      30.01S
TOMAHAWK       CLOUDY    70  64  80 SW5       30.04S
MEDFORD        CLOUDY    67  65  94 S8        30.04S
MERRILL        CLOUDY    68  66  95 SW7       30.05S
$$

WIZ029-030-035-036-043>047-311800-
CENTRAL WISCONSIN

CITY           SKY/WX    TMP DP  RH WIND       PRES   REMARKS
WAUSAU         CLOUDY    68  65  90 SW7       30.03F
MOSINEE        CLOUDY    64  64 100 SW6       30.06S FOG
MARSHFIELD     CLOUDY    71  65  81 SW9       30.05S
STEVENS POINT  CLOUDY    67  65  94 SW6       30.06S FOG
WAUPACA        CLOUDY    71  71 100 S6        30.05S
WAUTOMA        NOT AVBL
WISC RAPIDS    CLOUDY    72  66  81 S6        30.06S
CAMP DOUGLAS   NOT AVBL
$$

WIZ011>013-019>022-031-037>040-048>050-311800-
NORTHEAST WISCONSIN

CITY           SKY/WX    TMP DP  RH WIND       PRES   REMARKS
ANTIGO         CLOUDY    70  65  85 SW7       30.05S
SHAWANO        CLOUDY    72  66  81 SW6       30.04S
OCONTO         CLOUDY    68  68 100 W7        30.03S
STURGEON BAY   CLOUDY    68  63  83 SW9       30.06S
GREEN BAY      CLOUDY    74  66  76 W9        30.04F
MANITOWOC      PTSUNNY   75  66  73 MISG      30.05S
APPLETON       PTSUNNY   72  68  88 SW7       30.05S
CLINTONVILLE   CLOUDY    70  64  83 SW7       30.05S
OSHKOSH        CLOUDY    72  64  76 SW7       30.06S
$$

WIZ032>034-041-042-053>061-311800-
SOUTHWEST WISCONSIN

CITY           SKY/WX    TMP DP  RH WIND       PRES   REMARKS
LA CROSSE      MOSUNNY   76  68  76 S8        30.01S
SPARTA         CLOUDY    73  65  75 SE7       30.04F
VIROQUA          N/A     75  72  89 S5        30.05F
BOSCOBEL       MOSUNNY   81  70  69 VRB3      30.04S HX  84
PRAIRIE DU CHI SUNNY     77  68  73 S5        30.03S
PLATTEVILLE    SUNNY     77  72  85 S7        30.07S
$$

WIZ056-057-062-063-064-067-068-311800-
SOUTH CENTRAL WISCONSIN

CITY           SKY/WX    TMP DP  RH WIND       PRES   REMARKS
REEDSBURG      PTSUNNY   75  69  80 S5        30.05S
BARABOO/DELLS  MOSUNNY   77  66  69 SW8       30.06S
LONE ROCK      NOT AVBL
MINERAL POINT  MOSUNNY   77  70  78 S8        30.07S
MADISON        PTSUNNY   77  67  71 S9        30.06S
MIDDLETON      MOSUNNY   79  68  68 SW6       30.07S HX  82
WATERTOWN      CLOUDY    73  70  90 CALM      30.07F
MONROE         MOSUNNY   77  68  73 S8        30.07S
JANESVILLE     NOT AVBL
$$

WIZ051-052-058>065-066-070>072-311800-
SOUTHEAST WISCONSIN

CITY           SKY/WX    TMP DP  RH WIND       PRES   REMARKS
MILWAUKEE      CLOUDY    75  66  73 VRB3      30.08S
WAUKESHA       CLOUDY    72  64  78 W6        30.10S
MILWAUKEE/TIMM CLOUDY    73  63  68 W6        30.08F
RACINE         PTSUNNY   77  66  68 VRB7      30.10S
BURLINGTON     PTSUNNY   76  65  70 SW3       30.08F
KENOSHA        MOSUNNY   78  68  71 VRB3      30.09S HAZE    HX  80
FOND DU LAC    CLOUDY    73  65  75 W5        30.07S
SHEBOYGAN      PTSUNNY   75  66  73 W8        30.06S
WEST BEND      CLOUDY    72  63  73 CALM      30.08S
JUNEAU         CLOUDY    72  65  80 SW5       30.09S
$$

LSZ147-162-311800-
LAKE SUPERIOR

STATION/POSITION TIME  TEMP    WIND        PRES    WAVE
                       AIR SEA DIR/SP/G            HT/PER
                 (UTC) (F)     (DEG/KT/KT) (MB)    (FT/S)
W MID LAKE BUOY  1550   59 55  160/  6/  6 1012.6F   1
DEVILS ISLAND    1600   69     250/  2/  4 1012.2R
PORT WING        1600   75     210/ 10/ 16 1012.5R
SAXON HARBOR     1640   78     210/ 11/ 16 1012.2S
$$

LMZ867-665-643>646-311800-
LAKE MICHIGAN

STATION/POSITION TIME  TEMP    WIND        PRES    WAVE
                       AIR SEA DIR/SP/G            HT/PER
                 (UTC) (F)     (DEG/KT/KT) (MB)    (FT/S)
CHAMBERS ISLAND  1600   66     190/  4/  8 1016.6S
S GREEN BAY BUOY 1500   64 63  220/  6/  8 1018.3R
N MID LAKE BUOY  1550   62 65  210/ 14/ 16 1016.2R   2/ 4
NORTHPORT PIER   1600   66     220/  5/  9 1016.6R
KEWAUNEE LAKESHO 1500   52     150/  5/  7 1016.1R
SHEBOYGAN LAKESH 1600   63     170/ 16/ 16 1018.0R
PORT WASHINGTON  1640   60     170/  4/  6 1019.0R
ATWATER BUOY     1500   55 49  140/  6/  6 1019.8R
MILWAUKEE LAKESH 1510   63     130/  5/  6   N/A
S MID LAKE BUOY  1550   66 70  270/  2/  4 1018.8R   0
KENOSHA   LAKESH 1600   62     160/  7/  8 1018.6R
$$

TC  - TEMPERATURE IN CELSIUS
VSB - VISIBILITY IN STATUTE MILES
WCI - WIND CHILL INDEX
HX  - HEAT INDEX




USA.gov is the U.S. government's official web portal to all federal, state and local government web resources and services.